East Midlands, United Kingdom

8:09 AM BST on September 20, 2017 (GMT +0100)
East Midlands

Weather History for EGNX - April, 2013

Change the Weather History Date:

Wednesday, April 24, 2013

  Actual Average Record
Temperature  
Mean Temperature 56 °F -  
Max Temperature 64 °F 58 °F 69 °F (2002)
Min Temperature 48 °F 43 °F 33 °F (2016)
Degree Days  
Heating Degree Days 9    
Growing Degree Days 6 (Base 50)    
Moisture  
Dew Point 48 °F    
Average Humidity 75    
Maximum Humidity 82    
Minimum Humidity 63    
Precipitation  
Precipitation 0.00 in - - ()
Sea Level Pressure  
Sea Level Pressure 30.18 in    
Wind  
Wind Speed 10 mph ()    
Max Wind Speed 21 mph    
Max Gust Speed -    
Visibility 6.2 miles    
Events      
Averages and records for this station are not official NWS values.
T = Trace of Precipitation, MM = Missing Value Source: Averaged Metar Reports

Daily Weather History Graph

Daily Weather History Graph

Search for Another Location

Airport or City:

Trip Planner

Search our weather history database for the weather conditions in past years. The results will help you decide how hot, cold, wet, or windy it might be!

Date:

Astronomy

Apr. 24, 2013 Rise Set
Actual Time 5:47 AM BST 8:20 PM BST
Civil Twilight 5:08 AM BST 8:59 PM BST
Nautical Twilight 4:19 AM BST 9:48 PM BST
Astronomical Twilight 3:20 AM BST 10:49 PM BST
Moon 7:00 PM BST (4/24) 4:53 AM BST (4/24)
Length of Visible Light 15h 50m
Length of Day
14h 33m
Waxing Gibbous, 97% of the Moon is Illuminated
Apr 24
Waxing Gibbous
Apr 25
Full
May 2
Last Quarter
May 10
New
May 18
First Quarter

Hourly Weather History & Observations

Time (BST) Temp. Dew Point Humidity Pressure Visibility Wind Dir Wind Speed Gust Speed Precip Events Conditions
12:20 AM 51.8 °F 42.8 °F 71% 30.18 in - SW 5.8 mph - N/A   Clear
12:50 AM 50.0 °F 42.8 °F 76% 30.18 in - West 5.8 mph - N/A   Clear
1:20 AM 50.0 °F 42.8 °F 76% 30.21 in - WSW 6.9 mph - N/A   Clear
1:50 AM 50.0 °F 42.8 °F 76% 30.18 in - SW 6.9 mph - N/A   Clear
2:20 AM 50.0 °F 42.8 °F 76% 30.18 in - SSW 6.9 mph - N/A   Clear
2:50 AM 50.0 °F 42.8 °F 76% 30.18 in - SSW 6.9 mph - N/A   Clear
3:20 AM 48.2 °F 42.8 °F 82% 30.15 in - SSW 5.8 mph - N/A   Clear
3:50 AM 48.2 °F 42.8 °F 82% 30.18 in - SSW 8.1 mph - N/A   Clear
4:20 AM 48.2 °F 42.8 °F 82% 30.15 in - SSW 8.1 mph - N/A   Clear
4:50 AM 48.2 °F 42.8 °F 82% 30.15 in - SSW 10.4 mph - N/A   Clear
5:20 AM 48.2 °F 42.8 °F 82% 30.15 in - SSW 9.2 mph - N/A   Clear
5:50 AM 50.0 °F 44.6 °F 82% 30.12 in - SSW 10.4 mph - N/A   Clear
6:20 AM 50.0 °F 44.6 °F 82% 30.12 in - SW 10.4 mph - N/A   Clear
6:50 AM 50.0 °F 44.6 °F 82% 30.15 in 6.2 mi SSW 12.7 mph - N/A   Partly Cloudy
7:20 AM 50.0 °F 44.6 °F 82% 30.15 in 6.2 mi SW 10.4 mph - N/A   Partly Cloudy
7:50 AM 51.8 °F 44.6 °F 76% 30.15 in 6.2 mi SW 8.1 mph - N/A   Partly Cloudy
8:20 AM 51.8 °F 46.4 °F 82% 30.15 in 6.2 mi WSW 11.5 mph - N/A   Partly Cloudy
8:50 AM 53.6 °F 48.2 °F 82% 30.15 in 6.2 mi WSW 12.7 mph - N/A   Partly Cloudy
9:20 AM 53.6 °F 46.4 °F 77% 30.15 in 6.2 mi WSW 15.0 mph - N/A   Partly Cloudy
9:50 AM 57.2 °F 48.2 °F 72% 30.15 in 6.2 mi WSW 17.3 mph - N/A   Partly Cloudy
10:20 AM 57.2 °F 48.2 °F 72% 30.15 in 6.2 mi West 19.6 mph - N/A   Partly Cloudy
10:50 AM 59.0 °F 50.0 °F 72% 30.15 in 6.2 mi WSW 17.3 mph - N/A   Scattered Clouds
11:20 AM 60.8 °F 50.0 °F 68% 30.15 in 6.2 mi WSW 18.4 mph - N/A   Scattered Clouds
11:50 AM 60.8 °F 50.0 °F 68% 30.15 in 6.2 mi WSW 19.6 mph - N/A   Partly Cloudy
12:20 PM 60.8 °F 50.0 °F 68% 30.15 in 6.2 mi WSW 19.6 mph - N/A   Scattered Clouds
12:50 PM 62.6 °F 51.8 °F 68% 30.15 in 6.2 mi WSW 20.7 mph - N/A   Mostly Cloudy
1:20 PM 62.6 °F 51.8 °F 68% 30.15 in 6.2 mi West 18.4 mph - N/A   Mostly Cloudy
1:50 PM 62.6 °F 51.8 °F 68% 30.18 in 6.2 mi West 20.7 mph - N/A   Mostly Cloudy
2:20 PM 64.4 °F 51.8 °F 64% 30.15 in 6.2 mi West 17.3 mph - N/A   Mostly Cloudy
2:50 PM 62.6 °F 51.8 °F 68% 30.18 in 6.2 mi West 15.0 mph - N/A   Mostly Cloudy
3:20 PM 62.6 °F 50.0 °F 63% 30.18 in 6.2 mi West 18.4 mph - N/A   Scattered Clouds
3:50 PM 62.6 °F 50.0 °F 63% 30.18 in 6.2 mi West 17.3 mph - N/A   Mostly Cloudy
4:20 PM 62.6 °F 51.8 °F 68% 30.18 in 6.2 mi West 15.0 mph - N/A   Mostly Cloudy
4:50 PM 60.8 °F 50.0 °F 68% 30.18 in 6.2 mi West 15.0 mph - N/A   Mostly Cloudy
5:20 PM 60.8 °F 50.0 °F 68% 30.18 in 6.2 mi WSW 13.8 mph - N/A   Scattered Clouds
5:50 PM 60.8 °F 50.0 °F 68% 30.18 in 6.2 mi WSW 12.7 mph - N/A   Scattered Clouds
6:20 PM 60.8 °F 50.0 °F 68% 30.21 in 6.2 mi West 13.8 mph - N/A   Partly Cloudy
6:50 PM 60.8 °F 50.0 °F 68% 30.21 in 6.2 mi West 12.7 mph - N/A   Partly Cloudy
7:20 PM 59.0 °F 50.0 °F 72% 30.21 in 6.2 mi West 11.5 mph - N/A   Partly Cloudy
7:50 PM 59.0 °F 50.0 °F 72% 30.21 in 6.2 mi West 10.4 mph - N/A   Scattered Clouds
8:20 PM 57.2 °F 50.0 °F 77% 30.21 in 6.2 mi WNW 10.4 mph - N/A   Mostly Cloudy
8:50 PM 57.2 °F 50.0 °F 77% 30.24 in 6.2 mi NW 5.8 mph - N/A   Mostly Cloudy
9:20 PM 55.4 °F 50.0 °F 82% 30.24 in 6.2 mi WNW 6.9 mph - N/A   Mostly Cloudy
9:50 PM 55.4 °F 50.0 °F 82% 30.24 in 6.2 mi NW 5.8 mph - N/A   Scattered Clouds
10:20 PM 53.6 °F 48.2 °F 82% 30.24 in 6.2 mi WNW 5.8 mph - N/A   Mostly Cloudy
10:50 PM 53.6 °F 48.2 °F 82% 30.24 in 6.2 mi West 6.9 mph - N/A   Scattered Clouds
11:20 PM 53.6 °F 48.2 °F 82% 30.24 in 6.2 mi WNW 3.5 mph - N/A   Partly Cloudy
11:50 PM 53.6 °F 48.2 °F 82% 30.24 in 6.2 mi NW 3.5 mph - N/A   Partly Cloudy